Location: Oroua River
(40.4333°S, 175.4333°E)
Time: 10:09:26
(UTC+00:00)

Cosmos 2297 Rocket - Visible Passes

Search period start: 28 September 2023 00:00
Search period end: 08 October 2023 00:00
Orbit: 841 x 841 km, 71.0° (Epoch: 27 September)

Date Brightness Start Highest point End Pass type
(mag) Time Alt. Az. Time Alt. Az. Time Alt. Az.
28 Sep 5.0 13:28:07 10° SSE 13:30:40 13° SE 13:33:13 10° ESE visible
28 Sep 2.4 15:09:58 10° SSW 15:22:33 - NNE 15:15:03 67° SSE visible
28 Sep 4.1 16:56:07 10° WSW 17:04:44 - NNW 16:56:36 11° WSW visible
29 Sep 4.9 13:13:05 10° SSE 13:15:22 12° SE 13:16:13 12° SE visible
29 Sep 3.4 14:54:45 10° SSW 14:57:54 34° S 14:57:54 34° S visible
30 Sep 5.0 12:58:07 10° SSE 13:00:04 12° SE 13:00:04 12° SE visible
30 Sep 3.9 14:39:31 10° SSW 14:41:47 25° SSW 14:41:47 25° SSW visible
01 Oct 5.0 12:43:12 10° SSE 12:44:19 11° SE 12:44:19 11° SE visible
01 Oct 4.2 14:24:19 10° SSW 14:26:04 20° SSW 14:26:04 20° SSW visible
02 Oct 5.4 07:04:51 10° SW 07:05:40 10° SW 07:06:28 10° SW visible
02 Oct 5.1 12:28:24 10° SSE 12:28:47 10° SE 12:28:47 10° SE visible
02 Oct 4.4 14:09:05 10° SSW 14:10:32 18° SSW 14:10:32 18° SSW visible
03 Oct 5.3 06:48:56 10° WSW 06:50:22 11° SW 06:51:47 10° SSW visible
03 Oct 4.5 13:53:52 10° SSW 13:55:08 17° SSW 13:55:08 17° SSW visible
04 Oct 4.6 13:38:39 10° SSW 13:39:50 16° S 13:39:50 16° S visible
05 Oct 4.6 13:23:26 10° SSW 13:24:36 16° S 13:24:36 16° S visible
06 Oct 4.7 13:08:14 10° SSW 13:09:24 16° S 13:09:24 16° S visible
07 Oct 4.7 12:53:02 10° SSW 12:54:15 16° S 12:54:15 16° S visible
